Flag for Turkey Weather past 2 weeks in Bodrum, Turkey

Now
67 °F

Overcast.


Feels Like: 67 °F
Forecast: 58 / 65 °F
Wind: 21 mph from Southeast

Location: Bodrum

Current Time: Feb 1, 2015 at 12:31:04 PM

Latest Report: Feb 1, 2015 at 11:00 AM


Visibility: 8 mi

Pressure: 29.77 "Hg

Humidity: 56%

Dew point: 50 °F

Location of BodrumLocation

Historic Weather in Bodrum — Graph

°F

Bodrum temperature yesterday

Maximum temperature yesterday: 64 °F (at 10:00 AM)
Minimum temperature yesterday: 58 °F (at 2:00 AM)
Average temperature yesterday: 63 °F

Past Weeks' High & Low Weather Summary

 TemperatureHumidityPressure
High67 °F (Jan 22, 3:00 PM)95% (Jan 26, 2:00 AM)30.37 "Hg (Jan 26, 2:00 AM)
Low47 °F (Jan 28, 5:00 AM)45% (Jan 17, 11:00 AM)29.71 "Hg (Jan 31, 5:00 AM)
Average59 °F68%29.98 "Hg
* Reported Jan 17 11:00 AM — Feb 1 11:00 AM, Bodrum, Weather by CustomWeather, © 2014

Note: Actual official high and low records may vary slightly from our data, if they occured in-between our weather recording intervals... More about our weather records

Advertising

Bodrum weather history for previous 24 hours

 ConditionsComfort  
Time TempWeatherWind HumidityBarometerVisibility
11:00 AM
Feb 1
67 °FOvercast.21 mph56%29.77 "Hg7 mi
10:00 AM66 °FOvercast.22 mph56%29.75 "Hg7 mi
9:00 AM66 °FOvercast.18 mph52%29.75 "Hg12 mi
8:00 AM65 °FOvercast.17 mph59%29.75 "Hg12 mi
5:00 AM66 °FClear.17 mph56%29.75 "Hg12 mi
2:00 AM67 °FClear.23 mph49%29.74 "Hg12 mi
11:00 PM
Jan 31
64 °FPassing clouds.22 mph53%29.78 "Hg12 mi
8:00 PM63 °FOvercast.22 mph64%29.77 "Hg12 mi
7:00 PM63 °FOvercast.25 mph65%29.75 "Hg12 mi
6:00 PM63 °FOvercast.23 mph62%29.74 "Hg12 mi
5:00 PM63 °FOvercast.17 mph61%29.75 "Hg12 mi
4:00 PM64 °FOvercast.20 mph60%29.75 "Hg12 mi
3:00 PM64 °FOvercast.18 mph62%29.75 "Hg12 mi
2:00 PM64 °FOvercast.17 mph59%29.76 "Hg12 mi
1:00 PM63 °FOvercast.17 mph59%29.77 "Hg12 mi
12:00 PM63 °FOvercast.17 mph59%29.77 "Hg12 mi
Weather by CustomWeather, © 2014

See weather overviewHow to use our weather pages